Regional Weather Roundup
Issued by NWS Little Rock, AR

Home | Current Version | Previous Version | Text Only | Print | Product List | Glossary On
Versions: 1 2 3 4 5 6 7 8 9 10 11 12 13 14 15 16 17 18 19 20 21 22 23 24 25 26 27 28 29 30 31 32
000
ASUS44 KLZK 250012
RWRLZK

WEATHER ROUNDUP FOR ARKANSAS
NATIONAL WEATHER SERVICE LITTLE ROCK AR
700 PM CDT SAT JUN 24 2017

NOTE: "FAIR" INDICATES FEW OR NO CLOUDS BELOW 12,000 FEET WITH NO
SIGNIFICANT WEATHER AND/OR OBSTRUCTIONS TO VISIBILITY.

ARZ001-003-010-029-250100-
NORTHWEST ARKANSAS

CITY           SKY/WX    TMP DP  RH WIND       PRES   REMARKS
FAYETTEVILLE   CLOUDY    77  54  44 VRB3      30.16R
6HR MIN TEMP:  75; 6HR MAX TEMP:  78;

FORT SMITH     MOSUNNY   82  58  43 NE10      30.13R
6HR MIN TEMP:  80; 6HR MAX TEMP:  85;

HARRISON       CLOUDY    76  51  41 NW8       30.17S
6HR MIN TEMP:  74; 6HR MAX TEMP:  77;

BENTONVILLE    SUNNY     75  48  38 NE10      30.18R
6HR MIN TEMP:  75; 6HR MAX TEMP:  79;

ROGERS         SUNNY     76  52  43 NE9       30.18S
6HR MIN TEMP:  75; 6HR MAX TEMP:  78;

SILOAM SPGS    SUNNY     79  52  38 NE6       30.16R
6HR MIN TEMP:  75; 6HR MAX TEMP:  81;

HIGHFILL       SUNNY     78  51  38 NE10      30.17R
6HR MIN TEMP:  78; 6HR MAX TEMP:  82;

SPRINGDALE     MOSUNNY   77  50  38 NE9       30.18S
$$

ARZ004-005-016-250100-
NORTH CENTRAL ARKANSAS

CITY           SKY/WX    TMP DP  RH WIND       PRES   REMARKS
BATESVILLE     MOSUNNY   79  57  47 N8        30.13R
6HR MIN TEMP:  77; 6HR MAX TEMP:  81;

FLIPPIN        CLOUDY   N/A N/A N/A N3        30.12S
MTN HOME       CLOUDY    77  56  48 VRB3      30.14S
6HR MIN TEMP:  74; 6HR MAX TEMP:  78;

$$

ARZ040-041-250100-
WEST CENTRAL ARKANSAS

CITY           SKY/WX    TMP DP  RH WIND       PRES   REMARKS
MENA           MOSUNNY   81  61  50 E6        30.15R
MOUNT IDA      CLOUDY    78  58  49 CALM      30.12R
6HR MIN TEMP:  77; 6HR MAX TEMP:  82;

$$

ARZ009-017-025-026-028-250100-
NORTHEAST ARKANSAS

CITY           SKY/WX    TMP DP  RH WIND       PRES   REMARKS
JONESBORO      MOSUNNY   80  59  48 N3        30.11R
6HR MIN TEMP:  78; 6HR MAX TEMP:  82;

WALNUT RIDGE   SUNNY     77  55  47 N10       30.12R
6HR MIN TEMP:  77; 6HR MAX TEMP:  82;

BLYTHEVILLE    MOSUNNY   79  62  56 N8        30.11R
6HR MIN TEMP:  78; 6HR MAX TEMP:  83;

$$

ARZ022-023-033-042-044-250100-
CENTRAL ARKANSAS

CITY           SKY/WX    TMP DP  RH WIND       PRES   REMARKS
LITTLE ROCK    PTSUNNY   79  57  46 NE8       30.12R
6HR MIN TEMP:  77; 6HR MAX TEMP:  83;

N LITTLE ROCK    N/A     77  62  59 NE6       30.12R
6HR MIN TEMP:  75; 6HR MAX TEMP:  81;

JACKSONVILLE   MOSUNNY   79  62  56 N6        30.11R
6HR MIN TEMP:  77; 6HR MAX TEMP:  82;

CONWAY           N/A     81  57  44 NE7       30.11R
SEARCY         MOSUNNY   79  59  50 N7        30.14R
6HR MIN TEMP:  78; 6HR MAX TEMP:  82;

HOT SPRINGS    CLOUDY    79  60  52 NE9       30.12S
6HR MIN TEMP:  78; 6HR MAX TEMP:  83;

RUSSELLVILLE   MOSUNNY   80  54  40 NE8       30.12R
6HR MIN TEMP:  78; 6HR MAX TEMP:  84;

CLINTON        FAIR      75  54  46 CALM      30.14R
$$

ARZ036-250100-
EAST ARKANSAS

CITY           SKY/WX    TMP DP  RH WIND       PRES   REMARKS
WEST MEMPHIS   MOSUNNY   78  62  57 N6        30.10R
6HR MIN TEMP:  78; 6HR MAX TEMP:  80;

$$

ARZ050-053-066-070-073-250100-
SOUTHWEST ARKANSAS

CITY           SKY/WX    TMP DP  RH WIND       PRES   REMARKS
CAMDEN         CLOUDY    77  64  65 NE3       30.10R
TEXARKANA      CLOUDY    78  68  71 E5        30.10R
6HR MIN TEMP:  77; 6HR MAX TEMP:  80;

EL DORADO      MOSUNNY   78  67  68 NE7       30.11R
6HR MIN TEMP:  78; 6HR MAX TEMP:  82;

DE QUEEN       PTSUNNY   80  67  64 E6        30.09R
6HR MIN TEMP:  77; 6HR MAX TEMP:  83;

$$

ARZ056-057-069-250100-
SOUTHEAST ARKANSAS

CITY           SKY/WX    TMP DP  RH WIND       PRES   REMARKS
PINE BLUFF     CLOUDY    77  65  66 NE5       30.12R
6HR MIN TEMP:  77; 6HR MAX TEMP:  82;

STUTTGART      PTSUNNY  N/A N/A N/A N8        30.12R
MONTICELLO     MOSUNNY   78  67  68 N5        30.10R
6HR MIN TEMP:  78; 6HR MAX TEMP:  83;


$$






USA.gov is the U.S. government's official web portal to all federal, state and local government web resources and services.